Weather History for KCBG - November, 2013

Change the Weather History Date:

Thursday, November 28, 2013

  Actual Average Record
Temperature  
Mean Temperature 16 °F -  
Max Temperature 26 °F 27 °F 51 °F (1998)
Min Temperature 6 °F 12 °F -14 °F (1985)
Degree Days  
Heating Degree Days 49    
Moisture  
Dew Point 10 °F    
Average Humidity 62    
Maximum Humidity 73    
Minimum Humidity 54    
Precipitation  
Precipitation 0.00 in - - ()
Sea Level Pressure  
Sea Level Pressure 30.27 in    
Wind  
Wind Speed 3 mph (NW)    
Max Wind Speed 14 mph    
Max Gust Speed 17 mph    
Visibility 10 miles    
Events Snow    
Averages and records for this station are not official NWS values.
T = Trace of Precipitation, MM = Missing Value Source: NWS Daily Summary

Daily Weather History Graph

Daily Weather History Graph

Search for Another Location

Airport or City:

Trip Planner

Search our weather history database for the weather conditions in past years. The results will help you decide how hot, cold, wet, or windy it might be!

Date:

Astronomy

Nov. 28, 2013 Rise Set
Actual Time 7:29 AM CST 4:32 PM CST
Civil Twilight 6:56 AM CST 5:05 PM CST
Nautical Twilight 6:19 AM CST 5:42 PM CST
Astronomical Twilight 5:43 AM CST 6:18 PM CST
Moon 2:19 AM CST (11/28) 1:53 PM CST (11/28)
Length of Visible Light 10h 09m
Length of Day
9h 02m
Waning Crescent, 22% of the Moon is Illuminated
Nov 28
Waning Crescent
Dec 2
New
Dec 9
First Quarter
Dec 17
Full
Dec 25
Last Quarter

Hourly Weather History & Observations

Time (CST) Temp. Windchill Dew Point Humidity Pressure Visibility Wind Dir Wind Speed Gust Speed Precip Events Conditions
12:16 AM 24.8 °F 20.5 °F 10.4 °F 54% 30.04 in 10.0 mi SSE 3.5 mph - N/A   Overcast
12:35 AM 24.8 °F - 10.4 °F 54% 30.04 in 10.0 mi Calm Calm - N/A   Overcast
12:56 AM 24.8 °F - 10.4 °F 54% 30.04 in 10.0 mi Calm Calm - N/A   Overcast
1:16 AM 24.8 °F - 10.4 °F 54% 30.04 in 10.0 mi Calm Calm - N/A   Overcast
1:34 AM 24.8 °F 19.1 °F 10.4 °F 54% 30.05 in 10.0 mi South 4.6 mph - N/A   Overcast
1:56 AM 24.8 °F 20.5 °F 10.4 °F 54% 30.05 in 10.0 mi SSW 3.5 mph - N/A   Overcast
2:15 AM 24.8 °F - 10.4 °F 54% 30.06 in 10.0 mi Calm Calm - N/A   Overcast
2:35 AM 23.0 °F - 10.4 °F 59% 30.06 in 10.0 mi Calm Calm - N/A   Overcast
2:55 AM 23.0 °F - 10.4 °F 59% 30.07 in 10.0 mi Calm Calm - N/A   Overcast
3:15 AM 23.0 °F - 10.4 °F 59% 30.07 in 10.0 mi Calm Calm - N/A   Overcast
3:35 AM 23.0 °F - 10.4 °F 59% 30.08 in 10.0 mi Calm Calm - N/A   Overcast
3:55 AM 23.0 °F - 10.4 °F 59% 30.09 in 10.0 mi Calm Calm - N/A   Overcast
4:15 AM 23.0 °F - 10.4 °F 59% 30.09 in 10.0 mi Calm Calm - N/A   Overcast
4:35 AM 23.0 °F - 12.2 °F 63% 30.10 in 10.0 mi Calm Calm - N/A   Overcast
4:55 AM 23.0 °F - 12.2 °F 63% 30.10 in 10.0 mi Calm Calm - N/A   Overcast
5:15 AM 23.0 °F - 12.2 °F 63% 30.11 in 10.0 mi Calm Calm - N/A   Overcast
5:35 AM 24.8 °F 20.5 °F 12.2 °F 59% 30.12 in 10.0 mi WNW 3.5 mph - N/A   Overcast
5:55 AM 24.8 °F 20.5 °F 12.2 °F 59% 30.12 in 10.0 mi West 3.5 mph - N/A   Overcast
6:15 AM 24.8 °F 19.1 °F 12.2 °F 59% 30.13 in 10.0 mi WNW 4.6 mph - N/A   Overcast
6:36 AM 24.8 °F 17.9 °F 12.2 °F 59% 30.14 in 10.0 mi NW 5.8 mph - N/A   Overcast
6:54 AM 24.8 °F 17.9 °F 12.2 °F 59% 30.15 in 10.0 mi NW 5.8 mph - N/A   Overcast
7:16 AM 23.0 °F 15.8 °F 12.2 °F 63% 30.15 in 10.0 mi NW 5.8 mph - N/A   Overcast
7:35 AM 23.0 °F 15.8 °F 12.2 °F 63% 30.16 in 10.0 mi NW 5.8 mph - N/A   Overcast
7:56 AM 23.0 °F 17.0 °F 12.2 °F 63% 30.18 in 10.0 mi WNW 4.6 mph - N/A   Overcast
8:15 AM 23.0 °F 14.7 °F 12.2 °F 63% 30.19 in 10.0 mi WNW 6.9 mph - N/A   Overcast
8:36 AM 23.0 °F 14.7 °F 12.2 °F 63% 30.20 in 10.0 mi WNW 6.9 mph - N/A   Overcast
8:55 AM 23.0 °F 14.7 °F 12.2 °F 63% 30.21 in 10.0 mi NW 6.9 mph - N/A   Overcast
9:15 AM 24.8 °F 14.6 °F 12.2 °F 59% 30.22 in 10.0 mi NW 10.4 mph - N/A Snow Light Snow
9:36 AM 24.8 °F 16.9 °F 12.2 °F 59% 30.23 in 10.0 mi NNW 6.9 mph - N/A Snow Light Snow
9:55 AM 24.8 °F 16.1 °F 14.0 °F 64% 30.24 in 7.0 mi NW 8.1 mph - N/A Snow Light Snow
10:16 AM 24.8 °F 14.0 °F 14.0 °F 64% 30.25 in 7.0 mi WNW 11.5 mph - N/A Snow Light Snow
10:35 AM 24.8 °F 12.9 °F 14.0 °F 64% 30.26 in 10.0 mi WNW 13.8 mph - N/A Snow Light Snow
10:55 AM 26.6 °F 19.1 °F 15.8 °F 64% 30.26 in 7.0 mi WNW 6.9 mph - N/A Snow Light Snow
11:15 AM 24.8 °F 14.6 °F 12.2 °F 59% 30.26 in 10.0 mi NW 10.4 mph 17.3 mph N/A Snow Light Snow
11:35 AM 24.8 °F 15.3 °F 14.0 °F 64% 30.26 in 10.0 mi NNW 9.2 mph - N/A Snow Light Snow
11:55 AM 26.6 °F 17.5 °F 14.0 °F 59% 30.27 in 10.0 mi NW 9.2 mph - N/A   Mostly Cloudy
12:15 PM 26.6 °F 19.1 °F 12.2 °F 55% 30.28 in 10.0 mi NW 6.9 mph - N/A   Overcast
12:35 PM 24.8 °F 17.9 °F 12.2 °F 59% 30.28 in 10.0 mi NW 5.8 mph - N/A   Mostly Cloudy
12:56 PM 26.6 °F 16.8 °F 12.2 °F 55% 30.28 in 10.0 mi NW 10.4 mph - N/A   Overcast
1:15 PM 26.6 °F 19.1 °F 12.2 °F 55% 30.29 in 10.0 mi NNW 6.9 mph - N/A   Overcast
1:36 PM 26.6 °F 17.5 °F 12.2 °F 55% 30.29 in 10.0 mi NNW 9.2 mph - N/A   Overcast
1:56 PM 26.6 °F 20.0 °F 12.2 °F 55% 30.30 in 10.0 mi NNW 5.8 mph - N/A   Overcast
2:15 PM 26.6 °F 18.2 °F 12.2 °F 55% 30.31 in 10.0 mi NNW 8.1 mph - N/A   Overcast
2:36 PM 24.8 °F 16.1 °F 12.2 °F 59% 30.31 in 10.0 mi NW 8.1 mph - N/A   Mostly Cloudy
2:55 PM 24.8 °F 16.1 °F 12.2 °F 59% 30.32 in 10.0 mi NW 8.1 mph - N/A   Mostly Cloudy
3:16 PM 24.8 °F 16.9 °F 12.2 °F 59% 30.33 in 10.0 mi NNW 6.9 mph - N/A   Overcast
3:35 PM 24.8 °F 16.9 °F 12.2 °F 59% 30.34 in 10.0 mi NNW 6.9 mph - N/A   Mostly Cloudy
3:56 PM 24.8 °F 16.9 °F 10.4 °F 54% 30.35 in 10.0 mi NW 6.9 mph - N/A   Scattered Clouds
4:15 PM 23.0 °F 14.7 °F 10.4 °F 59% 30.37 in 10.0 mi NW 6.9 mph - N/A   Clear
4:35 PM 21.2 °F 16.4 °F 10.4 °F 63% 30.38 in 10.0 mi NW 3.5 mph - N/A   Clear
4:56 PM 21.2 °F - 10.4 °F 63% 30.39 in 10.0 mi Calm Calm - N/A   Clear
5:16 PM 21.2 °F - 10.4 °F 63% 30.40 in 10.0 mi Calm Calm - N/A   Clear
5:35 PM 19.4 °F - 8.6 °F 63% 30.41 in 10.0 mi Calm Calm - N/A   Clear
5:55 PM 17.6 °F - 8.6 °F 68% 30.42 in 10.0 mi Calm Calm - N/A   Clear
6:15 PM 15.8 °F - 6.8 °F 68% 30.42 in 10.0 mi Calm Calm - N/A   Clear
6:35 PM 15.8 °F - 5.0 °F 62% 30.42 in 10.0 mi Calm Calm - N/A   Clear
6:55 PM 14.0 °F - 6.8 °F 73% 30.43 in 10.0 mi Calm Calm - N/A   Clear
7:15 PM 12.2 °F - 5.0 °F 73% 30.44 in 10.0 mi Calm Calm - N/A   Clear
7:35 PM 12.2 °F - 3.2 °F 67% 30.44 in 10.0 mi Calm Calm - N/A   Clear
7:55 PM 10.4 °F - 3.2 °F 73% 30.43 in 10.0 mi Calm Calm - N/A   Clear
8:15 PM 12.2 °F - 5.0 °F 73% 30.43 in 10.0 mi Calm Calm - N/A   Clear
8:36 PM 10.4 °F - 3.2 °F 73% 30.43 in 10.0 mi Calm Calm - N/A   Clear
8:55 PM 10.4 °F - 3.2 °F 73% 30.44 in 7.0 mi Calm Calm - N/A   Clear
9:15 PM 10.4 °F - 3.2 °F 73% 30.44 in 7.0 mi Calm Calm - N/A   Clear
9:35 PM 8.6 °F - 1.4 °F 73% 30.45 in 10.0 mi Calm Calm - N/A   Clear
9:56 PM 8.6 °F - 1.4 °F 73% 30.46 in 10.0 mi Calm Calm - N/A   Clear
10:15 PM 8.6 °F - 1.4 °F 73% 30.46 in 10.0 mi Calm Calm - N/A   Clear
10:36 PM 8.6 °F - 1.4 °F 73% 30.47 in 10.0 mi Calm Calm - N/A   Clear
10:55 PM 8.6 °F - 1.4 °F 73% 30.47 in 10.0 mi Calm Calm - N/A   Clear
11:16 PM 6.8 °F - -0.4 °F 72% 30.47 in 10.0 mi Calm Calm - N/A   Clear
11:35 PM 8.6 °F - 1.4 °F 73% 30.48 in 10.0 mi Calm Calm - N/A   Clear
11:55 PM 8.6 °F - 1.4 °F 73% 30.48 in 10.0 mi Calm Calm - N/A   Clear